Date,TemperatureHighF,TemperatureAvgF,TemperatureLowF,DewpointHighF,DewpointAvgF,DewpointLowF,HumidityHigh,HumidityAvg,HumidityLow,PressureMaxIn,PressureMinIn,WindSpeedMaxMPH,WindSpeedAvgMPH,GustSpeedMaxMPH,PrecipitationSumIn
2013-1-1,39,33,32,32,30,19,57,8,40,0.00,0.00,0,0,0,0.00
2013-1-2,34,32,32,32,31,18,46,4,46,30.37,0.00,0,0,0,0.00
2013-1-3,32,32,32,32,32,32,0,0,100,30.22,0.00,0,0,0,0.00
2013-1-4,52,34,32,36,32,28,94,11,41,30.25,0.00,0,0,0,0.00
2013-1-5,32,32,32,32,32,32,0,0,100,0.00,0.00,0,0,0,0.00
2013-1-6,42,34,32,41,33,32,93,22,84,30.25,0.00,0,0,0,0.00
2013-1-7,48,33,32,46,33,32,94,8,94,30.19,0.00,0,0,0,0.00
2013-1-8,32,32,32,32,32,32,0,0,100,0.00,0.00,0,0,0,0.00
2013-1-9,44,33,32,41,33,32,87,10,87,29.86,0.00,0,0,0,0.00
2013-1-10,36,33,32,36,32,32,98,16,94,30.10,0.00,0,0,0,0.00
2013-1-11,32,32,29,32,31,25,83,8,83,30.34,0.00,0,0,0,0.00
2013-1-12,35,32,28,32,31,25,98,13,62,30.34,0.00,0,0,0,0.00
2013-1-13,32,32,32,32,32,32,0,0,100,30.51,0.00,0,0,0,0.00
2013-1-14,32,32,32,32,32,32,0,0,100,30.51,30.51,0,0,0,0.00
2013-1-15,32,32,32,32,32,32,0,0,100,0.00,40.00,0,0,0,0.00
2013-1-16,36,36,36,32,32,32,87,87,87,0.00,40.00,0,0,0,0.00
2013-1-17,32,32,32,32,32,32,0,0,100,30.51,30.51,0,0,0,0.00
2013-1-18,32,32,32,32,32,32,0,0,100,0.00,40.00,0,0,0,0.00
2013-1-19,32,32,32,32,32,32,0,0,100,0.00,40.00,0,0,0,0.00
2013-1-20,32,32,32,32,32,32,0,0,100,0.00,40.00,0,0,0,0.00
2013-1-21,32,32,32,32,32,32,0,0,100,0.00,40.00,0,0,0,0.00
2013-1-22,32,32,32,32,32,32,0,0,100,0.00,40.00,0,0,0,0.00
2013-1-23,32,32,32,32,32,32,0,0,100,0.00,40.00,0,0,0,0.00
2013-1-24,32,32,32,32,32,32,0,0,100,0.00,40.00,0,0,0,0.00
2013-1-25,42,42,42,41,41,41,98,98,98,0.00,40.00,0,0,0,0.00
2013-1-26,32,32,32,32,32,32,0,0,100,0.00,40.00,0,0,0,0.00
2013-1-27,32,32,32,32,32,32,0,0,100,0.00,40.00,0,0,0,0.00
2013-1-28,32,32,32,32,32,32,0,0,100,0.00,40.00,0,0,0,0.00
2013-1-29,32,32,32,32,32,32,0,0,100,0.00,40.00,0,0,0,0.00
2013-1-30,32,32,32,32,32,32,0,0,100,0.00,40.00,0,0,0,0.00
2013-1-31,32,32,32,32,32,32,0,0,100,0.00,40.00,0,0,0,0.00
2013-2-1,32,32,32,32,32,32,0,0,100,0.00,40.00,0,0,0,0.00
2013-2-2,32,32,32,32,32,32,0,0,100,0.00,40.00,0,0,0,0.00
2013-2-3,32,32,32,32,32,32,0,0,100,30.34,30.34,0,0,0,0.00
2013-2-4,32,32,32,32,32,32,0,0,100,0.00,40.00,0,0,0,0.00
2013-2-5,32,32,32,32,32,32,0,0,100,0.00,40.00,0,0,0,0.00
2013-2-6,32,32,32,32,32,32,0,0,100,0.00,40.00,0,0,0,0.00
2013-2-7,32,32,32,32,32,32,0,0,100,0.00,40.00,0,0,0,0.00
2013-2-8,32,32,32,32,32,32,0,0,100,0.00,40.00,0,0,0,0.00
2013-2-9,33,33,33,32,32,32,93,93,93,0.00,40.00,0,0,0,0.00
2013-2-10,32,32,32,32,32,32,0,0,100,0.00,40.00,0,0,0,0.00
2013-2-11,32,32,32,32,32,32,0,0,100,0.00,40.00,0,0,0,0.00
2013-2-12,32,32,32,32,32,32,0,0,100,0.00,40.00,0,0,0,0.00
2013-2-13,32,32,32,32,32,32,0,0,100,0.00,40.00,0,0,0,0.00
2013-2-14,32,32,32,32,32,32,0,0,100,0.00,40.00,0,0,0,0.00
2013-2-15,32,32,32,32,32,32,0,0,100,0.00,40.00,0,0,0,0.00
2013-2-16,42,42,42,39,39,39,88,88,88,0.00,40.00,0,0,0,0.00
2013-2-17,32,32,32,32,32,32,0,0,100,0.00,40.00,0,0,0,0.00
2013-2-18,32,32,32,32,32,32,0,0,100,0.00,40.00,0,0,0,0.00
2013-2-19,32,32,32,32,32,32,0,0,100,0.00,40.00,0,0,0,0.00
2013-2-20,32,32,32,32,32,32,0,0,100,30.01,30.01,0,0,0,0.00
2013-2-21,32,32,32,32,32,32,0,0,100,0.00,40.00,0,0,0,0.00
2013-2-22,32,32,32,32,32,32,0,0,100,0.00,40.00,0,0,0,0.00
2013-2-23,32,32,32,32,32,32,0,0,100,30.07,30.07,0,0,0,0.00
2013-2-24,37,37,37,34,34,34,88,88,88,0.00,40.00,0,0,0,0.00
2013-2-25,32,32,32,32,32,32,0,0,100,30.21,0.00,0,0,0,0.00
2013-2-26,32,32,32,32,32,32,0,0,100,30.21,0.00,0,0,0,0.00
2013-2-27,50,50,50,41,41,41,73,73,73,30.28,30.28,0,0,0,0.00
2013-3-3,34,34,33,32,32,32,95,94,93,30.09,30.06,0,0,6,0.00
2013-3-4,61,43,29,37,32,30,97,65,28,30.09,29.74,4,0,12,0.00
2013-3-5,50,42,34,45,38,30,97,86,73,29.95,29.68,3,0,7,0.00
2013-3-6,45,43,41,45,42,37,97,93,80,30.01,29.59,3,0,6,0.00
2013-3-7,59,44,32,43,35,30,97,74,36,30.10,30.01,4,0,7,0.00
2013-3-8,62,44,31,39,34,30,97,71,32,30.24,30.07,4,0,6,0.00
2013-3-9,63,44,30,41,35,30,97,73,33,30.51,30.24,4,0,5,0.00
2013-3-10,52,44,35,46,39,34,96,82,60,30.51,30.45,0,0,3,0.00
2013-3-11,57,50,45,52,47,43,96,88,73,30.45,30.27,0,0,3,0.00
2013-3-12,63,55,49,52,49,45,97,82,53,30.27,30.19,4,0,7,0.00
2013-3-13,67,56,47,50,47,43,97,76,44,30.24,30.10,3,0,5,0.00
2013-3-14,62,54,47,52,46,39,97,76,43,30.24,30.07,5,0,8,0.00
2013-3-15,67,57,48,52,47,41,97,72,41,30.27,30.19,4,0,6,0.00
2013-3-16,52,48,39,50,44,39,97,87,73,30.22,30.04,6,0,11,0.00
2013-3-17,52,44,36,37,34,28,97,69,45,30.33,30.19,4,0,8,0.00
2013-3-18,57,45,36,39,35,32,95,70,41,30.33,30.19,4,0,7,0.00
2013-3-19,54,45,39,46,39,32,97,81,45,30.19,29.71,3,0,5,0.00
2013-3-20,56,50,41,54,43,32,97,77,50,30.19,29.57,6,1,12,0.00
2013-3-21,53,44,39,39,35,28,92,72,41,30.33,30.19,5,1,10,0.00
2013-3-22,50,40,34,41,35,27,97,83,40,30.42,30.33,5,0,10,0.00
2013-3-23,53,41,33,39,32,25,97,73,36,30.42,30.30,4,0,6,0.00
2013-3-24,57,46,35,36,31,28,89,59,35,30.30,30.10,6,1,10,0.00
2013-3-25,63,53,43,34,30,25,67,41,30,30.13,29.92,5,0,10,0.00
2013-3-26,56,48,39,48,43,34,93,81,61,30.07,29.98,3,0,5,0.00
2013-3-27,66,53,40,54,44,37,97,76,39,30.04,29.92,4,0,7,0.00
2013-3-28,68,56,44,52,46,39,97,73,35,30.16,30.04,4,0,6,0.00
2013-3-29,71,59,49,54,48,41,97,70,35,30.24,30.16,4,0,7,0.00
2013-3-30,79,61,47,48,46,45,95,63,30,30.22,29.98,5,0,8,0.00
2013-3-31,76,62,47,52,46,43,90,59,32,30.04,29.92,5,0,7,0.00
2013-4-1,67,59,51,54,50,46,93,73,52,30.19,30.04,4,0,6,0.00
2013-4-2,68,58,51,50,48,45,87,70,43,30.24,30.16,4,0,6,0.00
2013-4-3,67,56,44,52,48,43,97,75,45,30.22,29.92,4,0,5,0.00
2013-4-4,62,58,54,59,53,48,96,85,70,29.95,29.71,4,0,10,0.00
2013-4-5,62,56,51,54,51,46,97,84,62,29.98,29.86,5,0,10,0.00
2013-4-6,59,52,46,52,47,37,97,85,50,30.04,29.77,6,0,8,0.00
2013-4-7,56,49,44,52,44,37,97,80,54,30.01,29.59,7,1,13,0.00
2013-4-8,58,49,41,48,43,37,97,82,51,30.30,30.01,4,0,6,0.00
2013-4-9,60,51,40,48,43,39,97,76,47,30.39,30.27,4,0,4,0.00
2013-4-10,61,55,47,57,45,34,92,71,45,30.36,30.13,7,1,13,0.00
2013-4-11,60,49,37,45,40,36,97,72,46,30.39,30.22,4,0,5,0.00
2013-4-12,56,47,36,48,41,34,97,80,51,30.22,29.89,4,0,7,0.00
2013-4-13,55,46,39,41,36,28,96,69,41,30.13,29.95,6,1,10,0.00
2013-4-14,54,46,39,45,40,32,97,83,47,30.13,29.98,4,0,7,0.00
2013-4-15,59,48,38,46,38,28,97,72,35,30.22,29.98,5,0,8,0.00
2013-4-16,62,49,37,46,39,32,97,72,34,30.42,30.22,5,0,10,0.00
2013-4-17,62,49,35,43,38,34,97,68,37,30.51,30.42,4,0,7,0.00
2013-4-18,63,54,47,52,42,37,93,64,44,30.51,30.33,4,0,6,0.00
2013-4-19,60,54,50,54,50,45,97,86,67,30.33,30.19,5,0,9,0.00
2013-4-20,64,54,50,48,44,37,93,69,43,30.36,30.27,5,0,7,0.00
2013-4-21,57,51,46,52,46,41,96,80,62,30.33,30.27,4,0,7,0.00
2013-4-22,68,53,37,45,35,25,97,58,20,30.45,30.33,5,0,10,0.00
2013-4-23,70,55,38,37,32,23,87,47,17,30.42,30.16,6,1,11,0.00
2013-4-24,76,60,42,39,33,28,75,41,21,30.30,30.04,6,1,10,0.00
2013-4-25,78,60,42,46,40,34,88,50,23,30.19,30.04,4,0,5,0.00
2013-4-26,80,63,46,50,43,30,96,55,17,30.27,30.19,4,0,5,0.00
2013-4-27,74,60,45,50,42,34,89,56,24,30.27,30.22,6,1,11,0.00
2013-4-28,69,60,53,50,44,32,87,58,28,30.30,30.10,5,1,9,0.00
2013-4-29,60,54,43,50,38,27,96,59,28,30.27,30.10,7,2,12,0.00
2013-4-30,58,49,39,41,34,28,87,60,36,30.48,30.27,5,0,7,0.00
2013-5-1,72,55,35,37,35,32,94,52,23,30.54,30.45,5,1,7,0.00
2013-5-2,80,65,49,39,35,30,53,34,20,30.48,30.27,6,2,10,0.00
2013-5-3,80,65,48,45,37,32,66,37,22,30.33,30.16,7,2,12,0.00
2013-5-4,83,69,52,46,37,25,73,36,14,30.16,29.92,5,1,12,0.00
2013-5-5,86,72,56,46,38,32,61,32,16,29.92,29.71,7,1,11,0.00
2013-5-6,84,68,52,54,48,41,83,52,22,29.92,29.77,4,0,7,0.00
2013-5-7,77,65,51,54,49,46,89,59,35,30.07,29.89,4,0,7,0.00
2013-5-8,70,60,51,55,50,48,90,72,49,30.16,30.07,4,0,6,0.00
2013-5-9,79,64,52,55,51,45,95,67,33,30.22,30.10,5,1,8,0.00
2013-5-10,84,69,53,59,54,45,95,61,27,30.22,30.10,4,0,7,0.00
2013-5-11,85,72,59,59,54,50,81,56,32,30.22,30.01,4,0,5,0.00
2013-5-12,72,65,60,61,58,55,97,79,58,30.16,30.07,4,0,6,0.00
2013-5-13,69,61,51,59,52,41,97,75,43,30.24,30.07,7,1,12,0.00
2013-5-14,68,58,44,52,41,34,96,59,28,30.27,30.13,6,0,7,0.00
2013-5-15,61,56,50,54,49,45,87,77,66,30.16,30.07,4,0,5,0.00
2013-5-16,68,59,53,57,54,50,95,84,53,30.07,29.95,4,0,7,0.00
2013-5-17,67,57,49,54,49,41,97,78,44,30.13,30.01,4,0,6,0.00
2013-5-18,61,55,51,55,53,48,97,91,68,30.30,30.13,3,0,5,0.00
2013-5-19,67,59,52,55,49,39,97,71,40,30.42,30.30,4,0,7,0.00
2013-5-20,73,60,46,50,46,41,96,64,32,30.39,29.92,4,0,7,0.00
2013-5-21,63,52,45,50,46,43,96,83,53,30.01,29.86,5,0,10,0.00
2013-5-22,51,47,44,50,46,41,97,94,90,30.04,29.95,4,0,6,0.00
2013-5-23,58,50,46,52,48,45,97,91,63,30.07,29.98,5,0,7,0.00
2013-5-24,62,54,48,54,50,46,97,86,59,30.13,30.01,4,0,7,0.00
2013-5-25,69,59,51,55,49,39,97,71,36,30.10,29.95,5,0,7,0.00
2013-5-26,66,60,55,59,52,46,97,76,52,30.07,29.95,5,0,8,0.00
2013-5-27,68,57,52,61,54,48,97,89,68,30.04,29.77,4,0,6,0.00
2013-5-28,66,59,52,55,50,43,97,74,44,29.98,29.80,5,1,9,0.00
2013-5-29,66,58,51,57,51,43,97,79,48,30.10,29.68,5,1,10,0.00
2013-5-30,64,57,50,54,48,43,92,73,47,30.27,30.10,5,0,7,0.00
2013-5-31,69,61,50,54,46,39,93,60,35,30.36,30.24,5,1,7,0.00
2013-6-1,76,63,49,55,49,45,95,65,38,30.27,30.04,4,0,7,0.00
2013-6-2,72,64,57,52,50,45,80,61,39,30.10,30.04,5,1,8,0.00
2013-6-3,75,62,49,52,49,45,94,66,37,30.16,30.04,5,1,8,0.00
2013-6-4,84,68,51,54,49,39,88,53,22,30.13,29.98,5,1,9,0.00
2013-6-5,83,72,58,59,53,45,84,53,29,30.10,29.98,5,1,7,0.00
2013-6-6,83,70,58,57,52,41,83,55,33,30.07,30.01,5,1,9,0.00
2013-6-7,80,67,54,57,48,36,85,53,24,30.19,30.07,5,0,7,0.00
2013-6-8,78,66,51,52,47,30,88,54,25,30.22,30.07,4,0,7,0.00
2013-6-9,74,63,53,50,46,43,83,57,34,30.16,30.01,5,1,9,0.00
2013-6-10,70,60,47,48,44,39,87,57,39,30.07,29.92,4,1,8,0.00
2013-6-11,67,60,54,50,44,41,73,55,41,30.16,30.01,5,0,8,0.00
2013-6-12,66,59,55,54,49,45,89,71,50,30.22,30.16,4,0,6,0.00
2013-6-13,64,57,52,57,53,48,97,87,69,30.30,30.19,4,0,6,0.00
2013-6-14,68,61,54,54,50,45,92,69,47,30.30,30.01,4,1,7,0.00
2013-6-15,81,67,50,61,51,45,97,61,30,30.01,29.92,4,0,6,0.00
2013-6-16,75,65,54,57,54,50,91,67,45,30.13,30.01,4,0,6,0.00
2013-6-17,77,67,32,57,50,32,90,57,34,30.13,29.95,5,1,7,0.00
2013-6-18,70,66,32,52,47,43,79,49,37,30.04,29.95,4,2,8,0.00
2013-6-19,61,46,32,32,32,32,0,0,100,0.00,0.00,0,0,0,0.00
2013-6-20,70,65,57,55,50,46,85,59,42,29.94,29.85,5,0,7,0.00
2013-6-21,72,64,57,54,49,45,82,61,39,29.97,29.91,4,0,6,0.00
2013-6-22,81,67,51,57,49,37,95,57,22,29.94,29.65,4,0,7,0.00
2013-6-23,71,66,61,64,60,54,97,80,60,29.65,29.44,0,0,3,0.00
2013-6-24,70,63,57,63,56,50,97,78,49,29.53,29.44,4,0,7,0.00
2013-6-25,70,63,58,63,59,52,97,84,59,29.68,29.50,4,0,6,0.00
2013-6-26,74,66,60,64,59,54,97,80,51,29.85,29.68,4,0,5,0.00
2013-6-27,82,71,63,64,61,57,94,72,45,29.97,29.83,4,0,4,0.00
2013-6-28,90,76,62,70,62,54,97,66,29,29.94,29.80,4,0,6,0.00
2013-6-29,88,77,64,64,60,54,90,57,34,29.91,29.77,4,0,5,0.00
2013-6-30,95,80,64,66,62,57,91,57,29,29.80,29.62,4,0,5,0.00
2013-7-1,92,80,68,66,63,57,80,58,38,29.83,29.71,4,0,6,0.00
2013-7-2,87,76,65,63,58,50,81,56,30,29.88,29.83,5,1,8,0.00
2013-7-3,84,72,60,57,50,37,81,49,23,29.94,29.83,4,1,8,0.00
2013-7-4,76,66,55,57,51,48,88,59,40,29.97,29.83,4,0,10,0.00
2013-7-5,74,65,57,55,52,48,80,62,43,29.88,29.77,4,0,6,0.00
2013-7-6,78,65,54,57,54,50,92,69,42,29.80,29.65,4,0,7,0.00
2013-7-7,78,66,56,59,56,54,93,71,48,29.80,29.68,5,0,8,0.00
2013-7-8,82,68,56,61,54,50,89,64,37,29.91,29.80,4,0,6,0.00
2013-7-9,88,75,60,64,57,52,93,57,31,29.88,29.77,4,1,8,0.00
2013-7-10,80,69,58,55,52,45,83,56,33,29.88,29.74,5,1,11,0.00
2013-7-11,76,65,52,52,46,43,83,53,33,29.91,29.77,4,0,7,0.00
2013-7-12,73,64,50,54,48,43,88,57,40,29.91,29.83,4,0,7,0.00
2013-7-13,80,67,50,52,46,39,85,51,24,29.97,29.83,4,0,8,0.00
2013-7-14,85,72,57,54,47,39,80,45,20,29.91,29.77,4,0,7,0.00
2013-7-15,85,71,55,54,48,41,82,47,29,29.83,29.62,5,1,11,0.00
2013-7-16,92,76,64,59,51,43,70,43,18,29.80,29.56,4,0,7,0.00
2013-7-17,77,68,62,57,55,52,79,65,44,29.97,29.80,4,0,6,0.00
2013-7-18,81,69,58,59,55,46,90,63,33,30.03,29.85,4,1,7,0.00
2013-7-19,82,69,58,61,57,54,86,68,44,29.97,29.80,4,1,7,0.00
2013-7-20,80,67,59,61,57,54,93,72,44,29.91,29.74,4,0,6,0.00
2013-7-21,81,67,58,61,56,54,89,70,46,29.83,29.71,4,0,6,0.00
2013-7-22,81,69,59,61,56,52,89,67,40,29.88,29.77,4,0,7,0.00
2013-7-23,88,72,60,63,59,54,93,66,31,29.85,29.74,4,1,7,0.00
2013-7-24,89,74,60,63,56,45,88,57,22,29.85,29.77,4,0,7,0.00
2013-7-25,89,74,58,61,52,41,81,51,19,29.88,29.80,4,1,7,0.00
2013-7-26,88,73,59,55,50,37,77,46,25,29.97,29.85,4,1,7,0.00
2013-7-27,80,67,54,55,50,46,85,55,32,30.00,29.80,4,0,6,0.00
2013-7-28,74,63,53,54,51,48,89,66,46,29.88,29.77,4,0,7,0.00
2013-7-29,77,66,57,61,53,48,81,63,43,29.83,29.74,4,0,6,0.00
2013-7-30,81,68,57,59,55,50,90,66,38,29.94,29.83,4,0,6,0.00
2013-7-31,78,68,61,61,58,54,90,70,45,29.94,29.80,4,0,6,0.00
2013-8-1,68,64,59,61,56,54,94,78,67,29.91,29.85,3,0,5,0.00
2013-8-2,73,66,59,59,54,50,87,67,46,29.97,29.88,4,0,5,0.00
2013-8-3,80,69,62,59,57,55,86,68,43,29.91,29.77,4,0,7,0.00
2013-8-4,88,74,60,64,60,54,92,63,32,29.83,29.68,4,0,6,0.00
2013-8-5,88,75,61,63,58,54,90,60,31,29.83,29.71,4,0,6,0.00
2013-8-6,90,74,58,59,53,41,83,51,20,29.80,29.68,4,0,6,0.00
2013-8-7,85,72,59,59,56,50,90,60,31,29.83,29.74,4,0,6,0.00
2013-8-8,82,70,62,63,58,55,82,66,44,29.85,29.71,4,0,7,0.00
2013-8-9,78,70,61,63,57,52,82,64,44,29.77,29.68,4,0,6,0.00
2013-8-10,81,71,62,66,61,57,91,72,47,29.83,29.71,4,0,7,0.00
2013-8-11,77,68,61,61,58,57,89,73,52,29.88,29.80,4,0,6,0.00
2013-8-12,78,68,58,61,56,52,93,69,45,29.88,29.80,4,0,5,0.00
2013-8-13,83,69,55,61,54,45,93,63,26,29.91,29.71,4,0,7,0.00
2013-8-14,85,71,58,61,54,41,91,60,22,29.77,29.71,4,0,5,0.00
2013-8-15,81,73,67,68,63,57,88,71,56,29.80,29.74,3,0,5,0.00
2013-8-16,84,73,65,68,64,59,95,74,44,29.85,29.77,4,0,5,0.00
2013-8-17,82,71,59,61,57,54,88,62,40,29.88,29.80,4,0,6,0.00
2013-8-18,82,71,62,61,58,54,89,65,41,29.94,29.83,4,0,7,0.00
2013-8-19,83,71,60,61,56,45,92,62,32,29.91,29.85,4,0,6,0.00
2013-8-20,81,68,53,57,52,45,92,61,30,29.94,29.80,5,1,10,0.00
2013-8-21,88,73,58,54,51,46,76,48,29,29.83,29.65,5,1,9,0.00
2013-8-22,83,72,60,66,55,48,89,57,37,29.71,29.62,3,0,5,0.00
2013-8-23,76,68,62,64,59,54,92,74,49,29.77,29.68,4,0,5,0.00
2013-8-24,76,68,62,63,56,48,92,68,43,29.74,29.65,4,0,6,0.00
2013-8-25,71,65,58,64,58,52,95,79,64,29.74,29.71,3,0,4,0.00
2013-8-26,79,68,60,64,58,45,97,73,31,29.80,29.71,4,0,7,0.00
2013-8-27,82,71,62,63,60,48,95,70,43,29.80,29.59,4,0,5,0.00
2013-8-28,82,73,63,68,61,57,96,69,46,29.71,29.65,4,0,6,0.00
2013-8-29,78,71,66,70,65,61,97,82,59,29.88,29.65,4,0,7,0.00
2013-8-30,81,72,64,66,60,54,96,69,42,29.94,29.85,4,0,8,0.00
2013-8-31,87,72,60,64,59,54,96,67,34,29.85,29.62,4,0,5,0.00
2013-9-1,82,71,59,61,56,48,89,62,31,29.71,29.59,5,0,6,0.00
2013-9-2,80,72,63,63,57,50,88,61,38,29.74,29.68,5,0,7,0.00
2013-9-3,78,69,62,64,59,52,97,71,43,29.80,29.74,4,0,5,0.00
2013-9-4,75,68,61,63,60,57,93,75,57,29.85,29.80,3,0,5,0.00
2013-9-5,68,64,59,64,62,59,97,90,79,29.85,29.77,4,0,6,0.00
2013-9-6,71,64,59,64,60,57,97,87,64,29.94,29.83,5,0,7,0.00
2013-9-7,79,66,55,61,58,54,97,77,42,29.91,29.77,0,0,4,0.00
2013-9-8,83,70,60,64,60,54,97,72,37,29.88,29.80,4,0,6,0.00
2013-9-9,82,70,62,66,62,59,97,78,47,29.85,29.71,4,0,6,0.00
2013-9-10,89,74,62,66,63,61,95,71,41,29.74,29.56,4,0,7,0.00
2013-9-11,95,79,66,66,62,55,88,60,29,29.74,29.62,4,0,7,0.00
2013-9-12,82,71,60,66,61,57,93,73,48,29.83,29.71,4,0,4,0.00
2013-9-13,74,67,62,63,62,59,93,83,67,29.80,29.65,4,0,6,0.00
2013-9-14,77,68,62,66,63,61,96,82,63,29.68,29.50,4,0,6,0.00
2013-9-15,69,65,62,64,62,59,95,88,73,29.71,29.53,4,0,4,0.00
2013-9-16,73,64,60,63,59,55,97,84,59,29.80,29.71,5,0,7,0.00
2013-9-17,68,62,55,63,54,46,97,78,50,29.83,29.68,4,0,6,0.00
2013-9-18,72,62,54,57,51,45,94,71,38,29.91,29.83,4,0,5,0.00
2013-9-19,79,62,48,55,50,43,97,69,29,29.83,29.59,4,0,6,0.00
2013-9-20,75,62,50,57,53,48,97,75,47,29.59,29.47,4,0,8,0.00
2013-9-21,69,62,57,61,56,50,96,83,54,29.59,29.50,4,0,6,0.00
2013-9-22,65,59,57,61,56,50,97,88,59,29.62,29.50,5,1,9,0.00
2013-9-23,64,60,55,59,56,55,97,89,76,29.83,29.74,3,0,5,0.00
2013-9-24,62,56,52,57,54,50,97,93,69,29.80,29.68,3,0,6,0.00
2013-9-25,61,54,48,55,50,46,97,88,62,29.85,29.68,4,0,6,0.00
2013-9-26,66,55,48,54,50,45,97,83,49,29.97,29.85,4,0,6,0.00
2013-9-27,59,54,46,57,52,46,97,92,82,29.97,29.74,4,0,8,0.00
2013-9-28,66,59,53,61,58,54,97,94,77,29.74,29.32,6,1,10,0.00
2013-9-29,57,55,52,57,55,52,97,96,91,29.50,29.21,4,0,8,0.00
2013-9-30,58,54,51,55,52,48,97,93,83,29.83,29.41,5,0,8,0.00
2013-10-1,58,52,45,55,50,45,97,93,70,30.00,29.80,6,0,8,0.00
2013-10-2,56,49,44,52,47,43,97,92,77,30.00,29.88,4,0,5,0.00
2013-10-3,57,49,42,54,47,43,97,90,66,30.24,30.00,4,0,5,0.00
2013-10-4,66,52,41,52,47,41,97,84,50,30.27,30.15,4,0,5,0.00
2013-10-5,70,55,44,52,47,43,97,77,42,30.15,29.94,4,0,6,0.00
2013-10-6,72,55,41,55,46,37,97,74,35,29.94,29.77,4,0,6,0.00
2013-10-7,62,56,52,57,51,45,97,82,58,29.94,29.80,4,0,7,0.00
2013-10-8,57,52,42,54,48,41,97,87,66,29.97,29.80,4,0,8,0.00
2013-10-9,61,49,41,46,44,41,97,84,48,29.94,29.80,3,0,5,0.00
2013-10-10,62,53,44,54,49,43,97,86,51,29.91,29.77,4,0,7,0.00
2013-10-11,60,53,48,54,48,43,97,83,54,29.97,29.91,3,0,6,0.00
2013-10-12,58,51,43,50,47,43,97,87,66,30.00,29.88,3,0,4,0.00
2013-10-13,62,51,42,48,46,41,97,83,50,30.12,29.97,4,0,7,0.00
2013-10-14,66,52,40,48,45,41,97,78,44,30.18,30.09,4,0,7,0.00
2013-10-15,68,54,41,50,42,36,97,68,32,30.15,29.94,4,0,8,0.00
2013-10-16,65,51,40,48,44,39,97,80,45,29.97,29.91,4,0,6,0.00
2013-10-17,63,54,46,52,48,46,97,84,55,30.06,29.94,4,0,8,0.00
2013-10-18,70,56,47,50,46,39,97,71,33,30.00,29.88,4,0,7,0.00
2013-10-19,67,52,40,50,46,41,97,80,43,29.97,29.88,4,0,6,0.00
2013-10-20,62,51,42,52,48,43,97,90,62,29.97,29.88,4,0,6,0.00
2013-10-21,72,56,48,55,50,46,97,79,46,29.91,29.80,4,1,7,0.00
2013-10-22,76,58,47,54,50,46,97,76,39,29.85,29.77,4,0,7,0.00
2013-10-23,72,55,42,55,49,43,97,81,43,29.83,29.74,4,0,5,0.00
2013-10-24,67,54,44,55,50,45,97,87,53,29.91,29.80,4,0,5,0.00
2013-10-25,57,54,48,54,51,46,97,89,78,30.09,29.91,3,0,4,0.00
2013-10-26,58,53,47,52,49,45,97,88,71,30.09,29.97,3,0,5,0.00
2013-10-27,57,52,49,54,47,45,97,85,64,30.00,29.65,5,0,9,0.00
2013-10-28,60,50,37,46,35,27,97,64,27,29.74,29.62,6,1,12,0.00
2013-10-29,59,43,31,41,33,28,97,73,35,29.88,29.74,4,0,7,0.00
2013-10-30,59,45,31,48,38,30,97,78,45,30.00,29.88,3,0,5,0.00
2013-10-31,60,54,49,54,50,46,96,86,72,30.09,29.97,3,0,6,0.00
2013-11-1,62,54,46,55,50,46,97,87,61,30.09,29.74,0,0,4,0.00
2013-11-2,58,52,44,54,46,36,97,80,47,29.88,29.56,4,0,8,0.00
2013-11-3,53,47,42,45,43,39,97,85,63,29.97,29.85,4,0,6,0.00
2013-11-4,50,48,46,50,47,45,97,96,90,30.00,29.94,0,0,0,0.00
2013-11-5,56,52,48,54,52,48,97,96,90,30.06,29.91,3,0,6,0.00
2013-11-6,54,52,50,55,52,50,97,97,97,30.12,29.91,0,0,0,0.00
2013-11-7,56,52,49,57,50,43,97,90,72,29.94,29.71,5,0,11,0.00
2013-11-8,54,49,44,50,47,45,97,92,80,30.00,29.94,0,0,0,0.00
2013-11-9,52,47,42,48,45,43,97,92,78,29.94,29.85,3,0,4,0.00
2013-11-10,59,51,44,48,46,43,97,84,64,29.91,29.85,4,0,7,0.00
2013-11-11,60,53,44,46,41,39,94,64,47,29.97,29.83,5,1,10,0.00
2013-11-12,58,53,49,57,52,43,97,96,79,30.24,29.88,0,0,4,0.00
2013-11-13,61,51,44,54,49,45,97,92,59,30.30,30.12,3,0,6,0.00
2013-11-14,53,48,42,50,47,43,97,94,80,30.12,29.91,4,0,7,0.00
2013-11-15,50,46,41,48,45,41,97,95,83,29.91,29.35,4,0,10,0.00
2013-11-16,50,47,44,48,44,41,97,86,70,29.68,29.35,5,0,6,0.00
2013-11-17,58,51,46,48,45,43,95,80,66,29.80,29.68,5,0,10,0.00
2013-11-18,56,53,51,52,48,43,97,82,68,29.80,29.53,0,0,0,0.00
2013-11-19,54,49,34,54,44,27,97,84,51,29.85,29.53,5,0,7,0.00
2013-11-20,51,37,29,36,30,25,97,78,35,30.21,29.85,4,0,7,0.00
2013-11-21,52,37,27,30,20,9,97,56,21,30.39,30.21,5,1,11,0.00
2013-11-22,50,40,30,27,18,12,78,42,28,30.39,30.21,7,2,14,0.00
2013-11-23,53,44,39,21,19,16,40,34,26,30.21,29.97,8,2,15,0.00
2013-11-24,60,40,30,28,24,18,84,51,28,30.09,29.97,5,0,8,0.00
2013-11-25,57,37,26,37,27,21,97,71,28,30.15,30.09,4,0,7,0.00
2013-11-26,57,40,28,37,30,27,97,69,38,30.09,29.88,3,0,4,0.00
2013-11-27,56,46,42,30,28,27,53,47,36,29.88,29.77,5,1,10,0.00
2013-11-28,60,44,32,34,29,27,86,55,35,30.03,29.83,5,0,10,0.00
2013-11-29,32,32,32,19,19,19,52,52,52,30.25,30.25,0,0,0,0.00
2013-11-30,54,50,49,39,38,36,73,62,50,30.37,30.28,0,0,0,0.00
2013-12-1,57,54,49,54,52,46,98,92,82,30.22,29.95,0,0,0,1.39
2013-12-2,53,45,35,52,41,25,98,86,38,30.07,29.92,0,0,0,0.16
2013-12-3,51,37,26,39,24,12,93,61,28,30.34,30.07,0,0,0,0.00
2013-12-4,47,29,21,27,14,9,80,51,27,30.40,30.31,0,0,0,0.00
2013-12-5,40,29,22,14,10,7,53,41,29,30.34,30.19,0,0,0,0.00
2013-12-6,32,27,25,14,10,5,62,42,36,30.19,30.01,0,0,0,0.00
2013-12-7,38,24,17,9,2,0,44,34,22,30.45,30.13,0,0,0,0.00
2013-12-8,36,20,11,10,4,-2,58,46,30,30.63,30.45,0,0,0,0.00
2013-12-9,30,23,12,16,10,3,72,54,43,30.66,30.54,0,0,0,0.00
2013-12-10,38,31,24,23,19,14,74,57,45,30.57,30.42,0,0,0,0.00
2013-12-11,49,30,23,34,23,18,87,72,38,30.42,30.25,0,0,0,0.00
2013-12-12,38,31,23,36,26,19,93,85,75,30.28,30.16,0,0,0,0.00
2013-12-13,52,44,38,48,42,36,97,91,80,30.45,30.25,0,0,0,0.00
2013-12-14,44,42,40,43,40,37,98,95,91,30.48,30.42,0,0,0,0.00
2013-12-15,50,42,39,45,39,34,95,88,72,30.51,30.42,0,0,0,0.00
2013-12-16,44,43,41,45,42,39,98,96,91,30.51,30.28,0,0,0,0.00
2013-12-17,42,40,38,43,38,37,98,96,93,30.28,30.22,0,0,0,0.00
2013-12-18,44,39,30,43,37,28,96,93,88,30.22,30.10,0,0,0,0.00
2013-12-19,41,34,29,37,30,27,97,85,61,30.37,30.13,0,0,0,0.00
2013-12-20,47,38,34,45,36,30,95,90,83,30.25,29.89,0,0,0,0.00
2013-12-23,37,36,35,37,36,36,98,98,98,30.57,30.54,0,0,0,0.00
2013-12-24,42,38,33,43,38,32,98,98,98,30.66,30.51,0,0,0,0.00
2013-12-25,50,39,34,43,34,28,98,85,47,30.51,30.42,0,0,0,0.00
2013-12-26,50,37,33,41,32,27,95,84,46,30.42,30.25,0,0,0,0.00
2013-12-27,39,37,34,37,34,32,96,90,81,30.42,30.25,0,0,0,0.00
2013-12-28,53,41,36,46,36,32,95,82,56,30.54,30.42,0,0,0,0.00
2013-12-29,43,39,34,39,35,30,95,86,73,30.48,30.31,0,0,0,0.00
2013-12-30,42,39,35,39,37,34,95,90,84,30.34,30.22,0,0,0,0.00
2013-12-31,50,43,37,48,40,36,98,88,72,30.37,30.25,0,0,0,0.00
2014-1-1,58,43,37,43,39,32,98,87,39,30.40,30.28,0,0,0,0.00
2014-1-2,45,42,39,43,39,36,98,91,77,30.31,30.04,0,0,0,0.12